Hourly Weather Roundup
Issued by NWS Central Illinois

Home | Current Version | Previous Version | Graphics & Text | Print | Product List | Glossary On
Versions: 1 2 3 4 5 6 7 8 9 10 11 12 13 14 15 16 17 18 19 20 21 22 23 24 25 26 27 28 29 30 31 32 33 34 35 36 37 38 39 40 41 42 43 44 45 46 47 48 49 50
965
NZUS43 KILX 271210
HWRILX

Area Weather Roundup
National Weather Service Lincoln IL
700 AM CDT THU APR 27 2017

NOTE:  "FAIR" indicates few or no clouds below 12,000 feet, with
       no sigificant weather and/or obstructions to visibility.


CITY           SKY/WX    TMP DP  RH WIND       PRES   REMARKS
Bloomington    CLOUDY    43  40  89 W15G24    29.54
6HR MIN TEMP:  43; 6HR MAX TEMP:  58; 6HR PCP:  0.24;

Champaign      CLOUDY    46  41  82 W20       29.56R
6HR MIN TEMP:  46; 6HR MAX TEMP:  60; 6HR PCP:  0.16;

Danville       CLOUDY    48  45  90 W21G29    29.51R
6HR MIN TEMP:  48; 6HR MAX TEMP:  59; 6HR PCP:  0.06;

Decatur        CLOUDY    46  44  93 W14       29.58R
6HR MIN TEMP:  45; 6HR MAX TEMP:  59; 6HR PCP:  0.16;

Effingham      CLOUDY    48  46  94 SW12G21   29.63R
6HR MIN TEMP:  48; 6HR MAX TEMP:  59; 6HR PCP:  0.08;

Flora          CLOUDY    51  47  86 W15G21    29.63R
6HR MIN TEMP:  50; 6HR MAX TEMP:  61; 6HR PCP:  0.05;

Galesburg      DRIZZLE   38  37  93 W20G25    29.54R WCI  28
6HR MIN TEMP:  38; 6HR MAX TEMP:  45; 6HR PCP:  0.36;

Jacksonville   CLOUDY    43  40  89 W10       29.60R
6HR MIN TEMP:  42; 6HR MAX TEMP:  47; 6HR PCP:  0.20;

Lacon          DRIZZLE   42  40  95 W14G23    29.50R WCI  34
6HR MIN TEMP:  42; 6HR MAX TEMP:  50; 6HR PCP:  0.22;

Lawrenceville  CLOUDY    51  48  89 W15       29.61R
6HR MIN TEMP:  51; 6HR MAX TEMP:  62; 6HR PCP:  0.14;

Litchfield     CLOUDY    44  43  96 W15       29.62R FOG
6HR MIN TEMP:  44; 6HR MAX TEMP:  58; 6HR PCP:  0.09;

$$


CITY           SKY/WX    TMP DP  RH WIND       PRES   REMARKS
Lincoln        CLOUDY    45  42  90 W7        29.57R
6HR MIN TEMP:  45; 6HR MAX TEMP:  60; 6HR PCP:  0.35;

Macomb         LGT RAIN  40  39  95 W17       29.59R WCI  31
6HR MIN TEMP:  40; 6HR MAX TEMP:  45; 6HR PCP:  0.35;

Mattoon        CLOUDY    46  44  93 W10G22    29.58R
6HR MIN TEMP:  46; 6HR MAX TEMP:  59; 6HR PCP:  0.18;

Mt Carmel AP   CLOUDY    51  47  85 W17       29.61R
6HR MIN TEMP:  51; 6HR MAX TEMP:  62;

Olney-Noble AP CLOUDY    49  49 100 W8        29.62R
Paris AP       CLOUDY    48  46  93 W18       29.58R
6HR MIN TEMP:  48; 6HR MAX TEMP:  60; 6HR PCP:  0.06;

Peoria         CLOUDY    42  39  89 W17G25    29.55R WCI  34
6HR MIN TEMP:  42; 6HR MAX TEMP:  48; 6HR PCP:  0.44;

Pontiac        CLOUDY    45  44  96 W22       29.50R
6HR MIN TEMP:  45; 6HR MAX TEMP:  60; 6HR PCP:  0.25;

Rantoul        CLOUDY    47  44  88 W16G26    29.55R
6HR MIN TEMP:  47; 6HR MAX TEMP:  61; 6HR PCP:  0.05;

Robinson       CLOUDY    50  47  92 W14       29.61R
6HR MIN TEMP:  50; 6HR MAX TEMP:  60; 6HR PCP:  0.16;

Springfield    CLOUDY    45  42  89 W14       29.60R
6HR MIN TEMP:  45; 6HR MAX TEMP:  61; 6HR PCP:  0.39;

Taylorville    CLOUDY    44  40  88 W12G20    29.61R
6HR MIN TEMP:  44; 6HR MAX TEMP:  58; 6HR PCP:  0.31;

$$

...REGIONAL REPORTS...


CITY           SKY/WX    TMP DP  RH WIND       PRES   REMARKS
Chicago O`Hare LGT RAIN  52  50  93 W17G24    29.31R FOG
Kankakee       CLOUDY    48  47  96 W18G28    29.46R
Moline         LGT RAIN  39  35  86 W17       29.53R WCI  30
Mount Sterling CLOUDY    41  39  94 W7        29.60R FOG
Mount Vernon   LGT RAIN  48  48 100 SW8       29.65R FOG
Pittsfield     CLOUDY    44  41  90 W14G21    29.62R
Quincy         CLOUDY    42  39  89 W14       29.61R WCI  35
Rockford       LGT RAIN  44  40  85 NW15      29.39R
$$


CITY           SKY/WX    TMP DP  RH WIND       PRES   REMARKS
Burlington     CLOUDY    40  38  93 W9        29.57R WCI  34
Cedar Rapids   CLOUDY    36  35  96 NW20G25   29.52R WCI  25
Des Moines     CLOUDY    37  30  75 NW18G25   29.61R WCI  27
Kirksville     CLOUDY    40  37  89 W8        29.63R WCI  34
Ottumwa        CLOUDY    38  35  89 W9        29.59R WCI  31
St Louis       CLOUDY    48  42  80 W8        29.65R
$$


CITY           SKY/WX    TMP DP  RH WIND       PRES   REMARKS
Terre Haute    CLOUDY    52  48  86 W12       29.57R
Evansville     CLOUDY    53  49  86 W9G17     29.63R
Indianapolis   PTSUNNY   61  56  83 S20G26    29.50R
Lafayette      CLOUDY    53  50  89 SW17G30   29.49R
Madison        RAIN      40  38  93 NW8       29.35S FOG     WCI  34
Milwaukee      LGT RAIN  50  48  93 NW12      29.28R FOG
$$






USA.gov is the U.S. government's official web portal to all federal, state and local government web resources and services.